When you browse on this site, cookies collect data to enhance your experience and personalize the content and advertising you see.
Visit our Privacy Policy to learn more. By continuing to use the site, you agree to this use of cookies and data.
  • In Netherlands
  • List of Countries
  • For 7 days
  • Water Temperature
  • Weather Map
  • Weather Widgets
  • user-avatar
    Login

    Hourly Weather Razgrad

    Today, 22 August, Thursday

    Time Temperature Precipitation Wind Pressure Humidity
    00:00 +23°C° 0 mm 1 mps 744 mmHg 50%
    01:00 +20°C° 0 mm 0 mps 744 mmHg 51%
    02:00 +22°C° 0 mm 1 mps 744 mmHg 49%
    03:00 +22°C° 0 mm 1 mps 744 mmHg 49%
    04:00 +22°C° 0 mm 1 mps 743 mmHg 50%
    05:00 +21°C° 0 mm 1 mps 743 mmHg 50%
    06:00 +23°C° 0 mm 2 mps 744 mmHg 46%
    07:00 +25°C° 0 mm 2 mps 744 mmHg 41%
    08:00 +27°C° 0 mm 3 mps 745 mmHg 37%
    09:00 +29°C° 0 mm 3 mps 745 mmHg 34%
    10:00 +32°C° 0 mm 4 mps 745 mmHg 32%
    11:00 +35°C° 0 mm 5 mps 745 mmHg 29%
    12:00 +35°C° 0 mm 5 mps 745 mmHg 28%
    13:00 +36°C° 0 mm 5 mps 745 mmHg 27%
    14:00 +38°C° 0 mm 6 mps 744 mmHg 26%
    15:00 +36°C° 0 mm 6 mps 744 mmHg 26%
    16:00 +36°C° 0 mm 5 mps 744 mmHg 26%
    17:00 +36°C° 0 mm 5 mps 744 mmHg 27%
    18:00 +33°C° 0 mm 5 mps 744 mmHg 31%
    19:00 +30°C° 0 mm 4 mps 744 mmHg 35%
    20:00 +28°C° 0 mm 3 mps 744 mmHg 39%
    21:00 +27°C° 0 mm 3 mps 745 mmHg 42%
    22:00 +26°C° 0 mm 3 mps 745 mmHg 45%
    23:00 +25°C° 0 mm 3 mps 745 mmHg 48%

    Tomorrow, 23 August, Friday

    Time Temperature Precipitation Wind Pressure Humidity
    00:00 +24°C° 0 mm 3 mps 745 mmHg 54%
    01:00 +22°C° 0 mm 3 mps 745 mmHg 59%
    02:00 +21°C° 0 mm 3 mps 745 mmHg 65%
    03:00 +20°C° 0 mm 2 mps 745 mmHg 71%
    04:00 +20°C° 0 mm 2 mps 745 mmHg 77%
    05:00 +19°C° 0 mm 2 mps 745 mmHg 83%
    06:00 +21°C° 0 mm 2 mps 745 mmHg 76%
    07:00 +24°C° 0 mm 3 mps 745 mmHg 69%
    08:00 +25°C° 0 mm 3 mps 745 mmHg 62%
    09:00 +28°C° 0 mm 4 mps 746 mmHg 53%
    10:00 +30°C° 0 mm 5 mps 746 mmHg 44%
    11:00 +34°C° 0 mm 5 mps 746 mmHg 34%
    12:00 +35°C° 0 mm 5 mps 745 mmHg 32%
    13:00 +36°C° 0 mm 5 mps 745 mmHg 30%
    14:00 +38°C° 0 mm 6 mps 745 mmHg 28%
    15:00 +36°C° 0 mm 5 mps 744 mmHg 30%
    16:00 +36°C° 0 mm 5 mps 744 mmHg 31%
    17:00 +35°C° 0 mm 5 mps 744 mmHg 33%
    18:00 +33°C° 0 mm 4 mps 744 mmHg 37%
    19:00 +32°C° 0 mm 4 mps 744 mmHg 41%
    20:00 +29°C° 0 mm 3 mps 745 mmHg 45%
    21:00 +28°C° 0 mm 2 mps 745 mmHg 48%
    22:00 +27°C° 0 mm 2 mps 745 mmHg 51%
    23:00 +26°C° 0 mm 2 mps 745 mmHg 54%

    Day after tomorrow, 24 August, Saturday

    Time Temperature Precipitation Wind Pressure Humidity
    00:00 +25°C° 0 mm 2 mps 745 mmHg 58%
    01:00 +24°C° 0 mm 1 mps 745 mmHg 62%
    02:00 +23°C° 0 mm 1 mps 744 mmHg 66%
    03:00 +22°C° 0 mm 1 mps 744 mmHg 69%
    04:00 +22°C° 0 mm 1 mps 745 mmHg 71%
    05:00 +22°C° 0 mm 1 mps 745 mmHg 73%
    06:00 +24°C° 0 mm 2 mps 745 mmHg 67%
    07:00 +26°C° 0 mm 2 mps 745 mmHg 60%
    08:00 +28°C° 0 mm 3 mps 745 mmHg 54%
    09:00 +30°C° 0 mm 4 mps 745 mmHg 47%
    10:00 +33°C° 0 mm 4 mps 745 mmHg 41%
    11:00 +35°C° 0 mm 5 mps 745 mmHg 35%
    12:00 +35°C° 0 mm 4 mps 745 mmHg 33%
    13:00 +35°C° 0 mm 4 mps 745 mmHg 32%
    14:00 +35°C° 0 mm 3 mps 745 mmHg 31%
    15:00 +35°C° 0 mm 3 mps 744 mmHg 33%
    16:00 +34°C° 0 mm 4 mps 744 mmHg 35%
    17:00 +33°C° 0 mm 4 mps 744 mmHg 37%
    18:00 +31°C° 0 mm 3 mps 744 mmHg 41%
    19:00 +29°C° 0 mm 3 mps 744 mmHg 46%
    20:00 +27°C° 0 mm 2 mps 744 mmHg 51%
    21:00 +26°C° 0 mm 2 mps 744 mmHg 56%
    22:00 +25°C° 0 mm 2 mps 744 mmHg 60%
    23:00 +23°C° 0 mm 2 mps 744 mmHg 64%

    25 August, Sunday

    Time Temperature Precipitation Wind Pressure Humidity
    00:00 +23°C° 0 mm 1 mps 744 mmHg 65%
    01:00 +22°C° 0 mm 1 mps 744 mmHg 66%
    02:00 +22°C° 0 mm 1 mps 744 mmHg 67%
    03:00 +21°C° 0 mm 1 mps 744 mmHg 69%
    04:00 +21°C° 0 mm 1 mps 744 mmHg 71%
    05:00 +20°C° 0 mm 1 mps 743 mmHg 73%
    06:00 +23°C° 0 mm 1 mps 744 mmHg 66%
    07:00 +25°C° 0 mm 2 mps 744 mmHg 59%
    08:00 +27°C° 0 mm 3 mps 744 mmHg 52%
    09:00 +29°C° 0 mm 3 mps 744 mmHg 45%
    10:00 +33°C° 0 mm 4 mps 744 mmHg 38%
    11:00 +35°C° 0 mm 5 mps 744 mmHg 32%
    12:00 +36°C° 0 mm 5 mps 744 mmHg 29%
    13:00 +37°C° 0 mm 4 mps 743 mmHg 27%
    14:00 +37°C° 0 mm 4 mps 743 mmHg 24%
    15:00 +36°C° 0 mm 4 mps 743 mmHg 28%
    16:00 +35°C° 0 mm 4 mps 742 mmHg 31%
    17:00 +34°C° 0 mm 4 mps 742 mmHg 34%
    18:00 +32°C° 0 mm 4 mps 742 mmHg 39%
    19:00 +30°C° 0 mm 3 mps 743 mmHg 43%
    20:00 +28°C° 0 mm 3 mps 743 mmHg 48%
    21:00 +27°C° 0 mm 3 mps 743 mmHg 56%
    22:00 +25°C° 0 mm 2 mps 743 mmHg 64%
    23:00 +23°C° 0 mm 2 mps 743 mmHg 72%

    26 August, Monday

    Time Temperature Precipitation Wind Pressure Humidity
    00:00 +23°C° 0 mm 2 mps 743 mmHg 74%
    01:00 +22°C° 0 mm 1 mps 743 mmHg 76%
    02:00 +21°C° 0 mm 1 mps 743 mmHg 79%
    03:00 +21°C° 0 mm 1 mps 743 mmHg 79%
    04:00 +21°C° 0 mm 1 mps 743 mmHg 79%
    05:00 +20°C° 0 mm 1 mps 743 mmHg 79%
    06:00 +23°C° 0 mm 1 mps 743 mmHg 70%
    07:00 +25°C° 0 mm 2 mps 744 mmHg 62%
    08:00 +27°C° 0 mm 2 mps 744 mmHg 53%
    09:00 +29°C° 0 mm 3 mps 744 mmHg 46%
    10:00 +31°C° 0 mm 3 mps 744 mmHg 40%
    11:00 +34°C° 0 mm 3 mps 744 mmHg 33%
    12:00 +35°C° 0 mm 3 mps 744 mmHg 31%
    13:00 +35°C° 0 mm 3 mps 744 mmHg 29%
    14:00 +35°C° 0 mm 2 mps 743 mmHg 27%
    15:00 +34°C° 0 mm 2 mps 743 mmHg 29%
    16:00 +33°C° 0 mm 3 mps 743 mmHg 32%
    17:00 +31°C° 0 mm 3 mps 743 mmHg 34%
    18:00 +30°C° 0 mm 2 mps 743 mmHg 37%
    19:00 +29°C° 0 mm 2 mps 743 mmHg 41%
    20:00 +27°C° 0 mm 2 mps 743 mmHg 45%
    21:00 +26°C° 0 mm 2 mps 744 mmHg 52%
    22:00 +25°C° 0 mm 2 mps 744 mmHg 59%
    23:00 +23°C° 0 mm 2 mps 744 mmHg 67%

    27 August, Tuesday

    Time Temperature Precipitation Wind Pressure Humidity
    00:00 +23°C° 0 mm 2 mps 744 mmHg 70%
    01:00 +21°C° 0 mm 2 mps 744 mmHg 74%
    02:00 +21°C° 0 mm 1 mps 744 mmHg 77%
    03:00 +21°C° 0 mm 1 mps 744 mmHg 78%
    04:00 +21°C° 0 mm 1 mps 744 mmHg 80%
    05:00 +20°C° 0 mm 1 mps 744 mmHg 81%
    06:00 +21°C° 0 mm 2 mps 744 mmHg 71%
    07:00 +25°C° 0 mm 2 mps 744 mmHg 61%
    08:00 +27°C° 0 mm 3 mps 744 mmHg 50%
    09:00 +29°C° 0 mm 3 mps 744 mmHg 43%
    10:00 +32°C° 0 mm 4 mps 744 mmHg 35%
    11:00 +34°C° 0 mm 5 mps 744 mmHg 28%
    12:00 +35°C° 0 mm 4 mps 744 mmHg 26%
    13:00 +36°C° 0 mm 4 mps 744 mmHg 24%
    14:00 +37°C° 0 mm 4 mps 744 mmHg 22%
    15:00 +35°C° 0 mm 4 mps 743 mmHg 24%
    16:00 +34°C° 0 mm 4 mps 743 mmHg 26%
    17:00 +33°C° 0 mm 3 mps 743 mmHg 28%
    18:00 +30°C° 0 mm 4 mps 743 mmHg 34%
    19:00 +28°C° 0 mm 4 mps 743 mmHg 40%
    20:00 +26°C° 0 mm 4 mps 743 mmHg 46%
    21:00 +24°C° 0 mm 3 mps 743 mmHg 51%
    22:00 +23°C° 0 mm 2 mps 743 mmHg 55%
    23:00 +21°C° 0 mm 2 mps 744 mmHg 59%
    Show more